星链-5521 (STARLINK-5521 )

导读

STARLINK-5521是美国SpaceX公司星链星座的一员,于2023年5月10日发射升空,属于Starlink Group系列低轨互联网卫星,旨在为全球偏远欠发达等地区提供高速卫星互联网接入服务。星链星座通过部署大量低轨卫星,大幅降低通信传输时延,可为用户提供百兆级下载速率,目前该卫星运行在约550公里近地轨道,已稳定服役近3年,为全球网络覆盖提供支撑。

基本信息
目录编号:
56471
目录名称:
STARLINK-5521
国际标识:
2023-064Z
轨道中心:
EARTH
卫星名称:
星链-5521
卫星全名:
星链-5521 (STARLINK-5521 )
卫星状态:
在轨 (已飞行1223 天)
发射日期:
2023-05-10 UTC
国别 :
美国 (US)
星等 :
--
该卫星已列入 空间交会检测服务 Space Conjunction Data Service (SCDS) ,当前飞行风险评估等级: 无高风险
轨道信息
数据来源 国际轨道数据 AOE轨道数据
星历时间 2026-09-14T16:00:02+0800
10小时前
查看轨道信息
2026-09-11T06:00:00+0800
3天前
查看轨道信息
半长轴 6939.748km 6950.148km
偏心率 0.0002519 0.0002446
轨道倾角 70.001° 70.003°
近地点辐角 308.581° 255.326°
升交点赤经 8.902° 17.529°
平近点角 75.701° 48.394°
近地点 559.862km 570.31km
远地点 563.36km 573.712km
周期 95.890分钟 96.106分钟
每日圈数 15.017142 14.983447
详细信息
固有亮度:
5
最大亮度:
2.5
卫星平台:
Starlink v1.5
覆盖范围:
全球
运营商:
太空探索技术公司
运营商所在国:
美国
制造商(研发单位):
太空探索技术公司
制造商所在国:
美国
使用方式:
暂无
卫星简介
星链(Starlink)计划是由太空探索技术公司(SpaceX)提出的一个巨型低轨卫星互联网星座项目,计划在2019年至2024年间在太空搭建由约1.2万颗卫星组成的“星链”网络,其中1584颗将部署在地球上空550千米处的近地轨道,并从2020年开始工作。该卫星仍在工作。
2D轨道图
3D轨道图
轨道高度分析图
轨道倾角分析图
轨道综合分析图
查看轨道综合分析图
与全量物体交会距离演化趋势 订阅飞行安全评估服务
与全量物体交会风险概率演化趋势 订阅飞行安全评估服务